| time (UTC) | temp C | wind direction | speed KPH | gust KPH | rain 1hr cm | rain 24hr cm | rain mn cm | humidity % | barometer mb |
| 20260507160100 | 11 | 280 | 1.6 | 9.7 | 0.00 | 0.00 | 0.00 | 52 | 1010.7 |
| 20260507154556 | 11 | 264 | 1.6 | 8.0 | 0.00 | 0.00 | 0.00 | 49 | 1010.8 |
| 20260507153053 | 11 | 232 | 4.8 | 16.1 | 0.00 | 0.00 | 0.00 | 53 | 1010.9 |
| 20260507151551 | 10 | 230 | 3.2 | 14.5 | 0.00 | 0.00 | 0.00 | 56 | 1011.1 |
| 20260507150047 | 10 | 227 | 4.8 | 14.5 | 0.00 | 0.00 | 0.00 | 58 | 1011.1 |
| 20260507144546 | 10 | 264 | 4.8 | 11.3 | 0.00 | 0.00 | 0.00 | 56 | 1011.2 |
| 20260507143046 | 9 | 325 | 1.6 | 9.7 | 0.00 | 0.00 | 0.00 | 61 | 1011.2 |
| 20260507141545 | 9 | 224 | 1.6 | 4.8 | 0.00 | 0.00 | 0.00 | 63 | 1011.3 |
| 20260507140036 | 8 | 217 | 0.0 | 9.7 | 0.00 | 0.03 | 0.00 | 63 | 1011.4 |
| 20260507134545 | 8 | 183 | 4.8 | 8.0 | 0.00 | 0.03 | 0.00 | 64 | 1011.5 |
| 20260507133030 | 7 | 116 | 3.2 | 8.0 | 0.00 | 0.03 | 0.00 | 66 | 1011.6 |
| 20260507131534 | 7 | 113 | 3.2 | 4.8 | 0.00 | 0.03 | 0.00 | 67 | 1011.6 |
| 20260507130022 | 6 | 105 | 1.6 | 6.4 | 0.00 | 0.05 | 0.00 | 70 | 1011.6 |
| 20260507124521 | 6 | 67 | 1.6 | 8.0 | 0.00 | 0.05 | 0.00 | 73 | 1011.6 |
| 20260507123021 | 5 | 89 | 1.6 | 6.4 | 0.00 | 0.05 | 0.00 | 76 | 1011.7 |
| 20260507121518 | 5 | 63 | 3.2 | 6.4 | 0.00 | 0.05 | 0.00 | 79 | 1011.7 |
| 20260507120015 | 4 | 51 | 0.0 | 3.2 | 0.00 | 0.08 | 0.00 | 80 | 1011.8 |
| 20260507114524 | 4 | 30 | 0.0 | 1.6 | 0.00 | 0.08 | 0.00 | 81 | 1011.8 |
| 20260507113014 | 4 | 297 | 0.0 | 1.6 | 0.00 | 0.08 | 0.00 | 82 | 1012.1 |
| 20260507111520 | 3 | 278 | 0.0 | 1.6 | 0.00 | 0.08 | 0.00 | 85 | 1012.1 |
| 20260507110009 | 3 | 17 | 0.0 | 3.2 | 0.00 | 0.08 | 0.00 | 91 | 1011.8 |
| 20260507104507 | -17 | 0.0 | 0.0 | 0.00 | 0.08 | 0.00 | 1011.5 | ||
| 20260507103001 | -17 | 0.0 | 0.0 | 0.00 | 0.08 | 0.00 | 1011.2 | ||
| 20260507101559 | -17 | 0.0 | 0.0 | 0.00 | 0.08 | 0.00 | 1011.1 | ||
| 20260507100049 | -17 | 0.0 | 0.0 | 0.00 | 0.08 | 0.00 | 1010.9 | ||
| 20260507094546 | -17 | 0.0 | 0.0 | 0.00 | 0.08 | 0.00 | 1011.1 | ||
| 20260507093042 | -17 | 0.0 | 0.0 | 0.00 | 0.08 | 0.00 | 1011.2 | ||
| 20260507091557 | -17 | 0.0 | 0.0 | 0.00 | 0.08 | 0.00 | 1011.2 | ||
| 20260507090043 | -17 | 0.0 | 0.0 | 0.00 | 0.08 | 0.00 | 1011.2 | ||
| 20260507084539 | -17 | 0.0 | 0.0 | 0.00 | 0.08 | 0.00 | 1010.9 | ||
| 20260507083036 | -17 | 0.0 | 0.0 | 0.00 | 0.08 | 0.00 | 1011.1 | ||
| 20260507081525 | -17 | 0.0 | 0.0 | 0.00 | 0.08 | 0.00 | 1011.2 | ||
| 20260507080051 | -17 | 0.0 | 0.0 | 0.00 | 0.08 | 0.00 | 1011.2 | ||
| 20260507074548 | -17 | 0.0 | 0.0 | 0.00 | 0.08 | 0.00 | 1011.0 | ||
| 20260507073041 | -17 | 0.0 | 0.0 | 0.00 | 0.08 | 0.00 | 1011.0 | ||
| 20260507071537 | -17 | 0.0 | 0.0 | 0.00 | 0.08 | 0.00 | 1010.9 | ||
| 20260507070031 | -17 | 0.0 | 0.0 | 0.00 | 0.08 | 0.00 | 1010.9 | ||
| 20260507064529 | -17 | 0.0 | 0.0 | 0.00 | 0.08 | 0.00 | 1011.0 | ||
| 20260507063018 | -17 | 0.0 | 0.0 | 0.00 | 0.08 | 0.00 | 1011.2 | ||
| 20260507061515 | -17 | 0.0 | 0.0 | 0.00 | 0.08 | 0.00 | 1011.4 | ||
| 20260507060010 | -17 | 0.0 | 0.0 | 0.00 | 0.08 | 0.00 | 1011.5 | ||
| 20260507054505 | -17 | 0.0 | 0.0 | 0.00 | 0.08 | 0.00 | 1011.4 | ||
| 20260507053005 | -17 | 0.0 | 0.0 | 0.00 | 0.08 | 0.00 | 1011.7 | ||
| 20260507051556 | -17 | 0.0 | 0.0 | 0.00 | 0.08 | 0.00 | 1011.5 | ||
| 20260507050051 | -17 | 0.0 | 0.0 | 0.00 | 0.08 | 0.00 | 1011.8 | ||
| 20260507044548 | -17 | 0.0 | 0.0 | 0.00 | 0.08 | 0.00 | 1012.0 | ||
| 20260507043042 | -17 | 0.0 | 0.0 | 0.00 | 0.08 | 0.00 | 1012.0 | ||
| 20260507041538 | 5 | 184 | 0.0 | 4.8 | 0.00 | 0.08 | 0.00 | 94 | 1011.8 |
| 20260507040035 | 6 | 224 | 0.0 | 1.6 | 0.00 | 0.08 | 0.00 | 93 | 1011.9 |
| 20260507034551 | 6 | 224 | 0.0 | 1.6 | 0.00 | 0.08 | 0.00 | 93 | 1011.8 |
| 20260507033041 | 6 | 226 | 0.0 | 3.2 | 0.00 | 0.08 | 0.00 | 92 | 1011.7 |
| 20260507031532 | 6 | 211 | 0.0 | 4.8 | 0.00 | 0.08 | 0.00 | 92 | 1011.8 |
| 20260507030035 | 6 | 205 | 1.6 | 3.2 | 0.00 | 0.08 | 0.00 | 92 | 1011.8 |
| 20260507024547 | 6 | 213 | 0.0 | 3.2 | 0.00 | 0.08 | 0.00 | 92 | 1011.7 |
| 20260507023031 | 6 | 212 | 0.0 | 0.0 | 0.00 | 0.08 | 0.00 | 91 | 1011.6 |
| 20260507021601 | 6 | 212 | 0.0 | 1.6 | 0.00 | 0.08 | 0.00 | 91 | 1011.7 |
| 20260507020100 | 6 | 209 | 0.0 | 1.6 | 0.00 | 0.08 | 0.00 | 91 | 1011.9 |
| 20260507014559 | 6 | 236 | 0.0 | 3.2 | 0.00 | 0.08 | 0.00 | 91 | 1012.2 |
| 20260507013054 | 6 | 217 | 0.0 | 4.8 | 0.00 | 0.08 | 0.00 | 91 | 1012.2 |
| 20260507011553 | 6 | 184 | 0.0 | 0.0 | 0.00 | 0.08 | 0.00 | 91 | 1011.9 |
| 20260507010108 | 6 | 184 | 0.0 | 0.0 | 0.00 | 0.20 | 0.00 | 90 | 1011.7 |
| 20260507004547 | 6 | 184 | 0.0 | 1.6 | 0.00 | 0.20 | 0.00 | 90 | 1011.5 |
| 20260507003044 | 6 | 314 | 0.0 | 0.0 | 0.00 | 0.20 | 0.00 | 88 | 1011.2 |
| 20260507001551 | 6 | 314 | 0.0 | 0.0 | 0.00 | 0.20 | 0.00 | 88 | 1011.1 |
| 20260507000042 | 6 | 314 | 0.0 | 3.2 | 0.00 | 0.56 | 0.00 | 88 | 1011.0 |
| 20260506234510 | 6 | 300 | 1.6 | 6.4 | 0.00 | 0.56 | 0.00 | 87 | 1010.9 |
| 20260506233009 | 6 | 302 | 0.0 | 6.4 | 0.00 | 0.56 | 0.00 | 88 | 1010.9 |
| 20260506231506 | 6 | 358 | 0.0 | 6.4 | 0.00 | 0.56 | 0.00 | 88 | 1010.9 |
| 20260506230007 | 6 | 11 | 0.0 | 6.4 | 0.00 | 0.81 | 0.00 | 88 | 1010.8 |
| 20260506224601 | 6 | 353 | 1.6 | 8.0 | 0.00 | 0.81 | 0.00 | 88 | 1010.6 |
| 20260506223101 | 5 | 323 | 3.2 | 9.7 | 0.00 | 0.81 | 0.00 | 90 | 1010.3 |
| 20260506221551 | 5 | 359 | 3.2 | 11.3 | 0.00 | 0.81 | 0.00 | 90 | 1010.2 |
| 20260506220052 | 5 | 332 | 4.8 | 11.3 | 0.00 | 1.17 | 0.00 | 92 | 1010.0 |
| 20260506214549 | 5 | 298 | 3.2 | 11.3 | 0.00 | 1.17 | 0.00 | 94 | 1010.0 |
| 20260506213043 | 5 | 38 | 1.6 | 8.0 | 0.00 | 1.17 | 0.00 | 95 | 1009.9 |
| 20260506211509 | 5 | 284 | 3.2 | 12.9 | 0.00 | 1.17 | 0.00 | 95 | 1009.7 |
| 20260506210006 | 5 | 274 | 1.6 | 14.5 | 0.00 | 1.50 | 1.17 | 95 | 1009.4 |
| 20260506204502 | 5 | 287 | 4.8 | 14.5 | 0.00 | 1.50 | 1.17 | 94 | 1009.3 |
| 20260506203058 | 5 | 285 | 3.2 | 9.7 | 0.00 | 1.50 | 1.17 | 94 | 1009.1 |
| 20260506201554 | 6 | 258 | 3.2 | 11.3 | 0.00 | 1.50 | 1.17 | 91 | 1008.9 |
| 20260506200052 | 8 | 289 | 6.4 | 14.5 | 0.00 | 1.50 | 1.17 | 88 | 1008.7 |
| 20260506194548 | 10 | 236 | 4.8 | 8.0 | 0.00 | 1.50 | 1.17 | 85 | 1008.1 |
| 20260506193048 | 10 | 198 | 4.8 | 9.7 | 0.00 | 1.50 | 1.17 | 83 | 1008.1 |
| 20260506191546 | 10 | 184 | 6.4 | 9.7 | 0.00 | 1.50 | 1.17 | 81 | 1008.0 |
| 20260506190044 | 10 | 212 | 1.6 | 6.4 | 0.00 | 1.50 | 1.17 | 82 | 1008.1 |
| 20260506184545 | 10 | 139 | 1.6 | 3.2 | 0.00 | 1.50 | 1.17 | 84 | 1007.9 |
| 20260506183041 | 10 | 132 | 0.0 | 3.2 | 0.00 | 1.50 | 1.17 | 83 | 1008.0 |
| 20260506181539 | 10 | 193 | 0.0 | 6.4 | 0.00 | 1.50 | 1.17 | 84 | 1008.0 |
| 20260506180038 | 10 | 159 | 0.0 | 8.0 | 0.00 | 1.50 | 1.17 | 84 | 1008.0 |
| 20260506174538 | 10 | 101 | 0.0 | 6.4 | 0.00 | 1.50 | 1.17 | 86 | 1007.9 |
| 20260506173035 | 9 | 141 | 0.0 | 1.6 | 0.00 | 1.50 | 1.17 | 88 | 1008.1 |
| 20260506171534 | 8 | 118 | 0.0 | 1.6 | 0.00 | 1.50 | 1.17 | 88 | 1008.4 |
| 20260506170033 | 8 | 219 | 0.0 | 3.2 | 0.00 | 1.50 | 1.17 | 88 | 1008.3 |
| 20260506164533 | 8 | 117 | 0.0 | 1.6 | 0.00 | 1.50 | 1.17 | 88 | 1008.1 |
| 20260506163030 | 8 | 128 | 0.0 | 1.6 | 0.00 | 1.50 | 1.17 | 90 | 1008.1 |
| 20260506161529 | 8 | 85 | 0.0 | 1.6 | 0.00 | 1.50 | 1.17 | 91 | 1008.1 |